IN3XSV-13 Weather Reports


time (UTC)temp
C
wind
direction
speed
KPH
gust
KPH
rain 1hr
cm
rain 24hr
cm
rain mn
cm
humidity
%
barometer
mb
20260507124844 15 67 22.5 22.5 0.05 0.10 0.00 78 9952.4
20260507124344 14 90 6.4 19.3 0.05 0.10 0.00 78 9952.3
20260507123844 14 67 17.7 17.7 0.05 0.10 0.00 77 9952.4
20260507123344 13 45 0.0 14.5 0.05 0.10 0.00 75 9952.4
20260507122844 13 45 11.3 17.7 0.05 0.05 0.00 77 9952.3
20260507122344 13 67 9.7 14.5 0.05 0.05 0.00 78 9952.3
20260507121844 13 90 1.6 9.7 0.05 0.05 0.00 77 9952.5
20260507121344 13 315 0.0 0.0 0.05 0.05 0.00 74 9952.6
20260507120844 14 270 0.0 0.0 0.05 0.05 0.00 73 9952.5
20260507120344 14 337 0.0 0.0 0.05 0.05 0.00 72 9952.5
20260507115844 14 315 0.0 0.0 0.05 0.05 0.00 72 9952.5
20260507115344 15 337 0.0 0.0 0.05 0.05 0.00 71 9952.4
20260507114844 15 292 22.5 30.6 0.05 0.05 0.00 70 9952.1
20260507114344 16 292 20.9 20.9 0.05 0.05 0.00 69 9952.1
20260507113844 17 337 0.0 0.0 0.05 0.05 0.00 67 9952.0
20260507113344 17 247 0.0 12.9 0.00 0.00 0.00 64 9951.8
20260507112844 18 337 0.0 0.0 0.00 0.00 0.00 59 9951.6
20260507112344 18 247 0.0 16.1 0.00 0.00 0.00 54 9951.5
20260507111844 18 202 12.9 14.5 0.00 0.00 0.00 55 9951.5
20260507111344 17 135 0.0 0.0 0.00 0.00 0.00 55 9951.4
20260507110844 18 112 0.0 0.0 0.00 0.00 0.00 52 9951.4
20260507110344 18 135 0.0 0.0 0.00 0.00 0.00 52 9951.5
20260507105844 18 135 0.0 0.0 0.00 0.00 0.00 52 9951.4
20260507105344 19 337 0.0 0.0 0.00 0.00 0.00 51 9951.4
20260507104844 20 112 0.0 0.0 0.00 0.00 0.00 50 9951.4
20260507104344 21 135 0.0 0.0 0.00 0.00 0.00 50 9951.4
20260507103844 20 337 0.0 0.0 0.00 0.00 0.00 52 9951.6
20260507103344 19 112 0.0 0.0 0.00 0.00 0.00 53 9951.7
20260507102844 19 337 0.0 0.0 0.00 0.00 0.00 51 9951.6
20260507102344 18 135 0.0 0.0 0.00 0.00 0.00 52 9951.8
20260507101844 19 135 0.0 3.2 0.00 0.00 0.00 50 9951.7
20260507101344 20 90 3.2 8.0 0.00 0.00 0.00 50 9951.9
20260507100844 21 157 0.0 8.0 0.00 0.00 0.00 49 9952.0
20260507100344 22 112 0.0 3.2 0.00 0.00 0.00 46 9952.0
20260507095844 22 0 0.0 0.0 0.00 0.00 0.00 46 9951.9
20260507095344 21 315 0.0 0.0 0.00 0.00 0.00 49 9952.0
20260507094844 21 67 0.0 91.7 0.00 0.00 0.00 48 9951.9
20260507094344 21 112 0.0 0.0 0.00 0.00 0.00 51 9951.9
20260507093844 21 67 0.0 1.6 0.00 0.00 0.00 49 9952.1
20260507093344 22 45 0.0 6.4 0.00 0.00 0.00 51 9952.0
20260507092844 21 22 0.0 9.7 0.00 0.00 0.00 50 9952.0
20260507092344 21 22 6.4 91.7 0.00 0.00 0.00 52 9952.0
20260507091845 20 112 0.0 91.7 0.00 0.00 0.00 55 9952.1
20260507091344 19 45 0.0 0.0 0.00 0.00 0.00 57 9952.2
20260507090844 19 135 0.0 0.0 0.00 0.00 0.00 56 9952.3
20260507090344 19 135 0.0 45.1 0.00 0.00 0.00 56 9952.2
20260507085844 20 112 3.2 3.2 0.00 0.00 0.00 54 9952.3
20260507085344 20 112 0.0 91.7 0.00 0.00 0.00 55 9952.3
20260507084844 20 45 0.0 0.0 0.00 0.00 0.00 56 9952.4
20260507084344 20 112 0.0 0.0 0.00 0.00 0.00 55 9952.4
20260507083844 21 90 0.0 0.0 0.00 0.00 0.00 54 9952.5
20260507083344 23 0 0.0 0.0 0.00 0.00 0.00 53 9952.5
20260507082844 21 337 0.0 0.0 0.00 0.00 0.00 56 9952.5
20260507082344 20 45 0.0 1.6 0.00 0.00 0.00 58 9952.5
20260507081844 20 112 0.0 0.0 0.00 0.00 0.00 57 9952.4
20260507081344 20 22 0.0 1.6 0.00 0.00 0.00 59 9952.4
20260507080844 19 22 0.0 3.2 0.00 0.00 0.00 62 9952.5
20260507080344 19 45 0.0 0.0 0.00 0.00 0.00 63 9952.5
20260507075844 19 0 0.0 0.0 0.00 0.00 0.00 62 9952.4
20260507075344 18 67 0.0 0.0 0.00 0.00 0.00 63 9952.6
20260507074844 18 45 0.0 0.0 0.00 0.00 0.00 66 9952.5
20260507074344 17 337 0.0 0.0 0.00 0.00 0.00 66 9952.4
20260507073844 18 67 0.0 0.0 0.00 0.00 0.00 66 9952.5
20260507073344 17 315 0.0 0.0 0.00 0.00 0.00 68 9952.5
20260507072844 17 67 0.0 91.7 0.00 0.00 0.00 69 9952.5
20260507072344 17 45 0.0 0.0 0.00 0.00 0.00 70 9952.5
20260507071844 16 315 0.0 0.0 0.00 0.00 0.00 69 9952.5
20260507071344 17 90 0.0 1.6 0.00 0.00 0.00 71 9952.5
20260507070844 16 45 0.0 0.0 0.00 0.00 0.00 72 9952.4
20260507070344 16 337 0.0 0.0 0.00 0.00 0.00 73 9952.4
20260507065844 15 112 0.0 0.0 0.00 0.00 0.00 74 9952.4
20260507065344 15 157 0.0 0.0 0.00 0.00 0.00 76 9952.4
20260507064844 15 90 0.0 0.0 0.00 0.00 0.00 77 9952.4
20260507064345 14 112 0.0 0.0 0.00 0.00 0.00 77 9952.3
20260507063844 15 337 0.0 0.0 0.00 0.00 0.00 75 9952.3
20260507063344 16 67 0.0 0.0 0.00 0.00 0.00 78 9952.3
20260507062844 15 45 0.0 0.0 0.00 0.00 0.00 78 9952.4
20260507062344 16 45 0.0 6.4 0.00 0.00 0.00 81 9952.4
20260507061844 16 202 0.0 0.0 0.00 0.00 0.00 84 9952.4
20260507061344 13 202 0.0 0.0 0.00 0.00 0.00 87 9952.3
20260507060844 12 202 0.0 0.0 0.00 0.00 0.00 89 9952.4
20260507060344 11 202 0.0 1.6 0.00 0.00 0.00 89 9952.4
20260507055844 11 202 0.0 0.0 0.00 0.00 0.00 90 9952.3
20260507055344 10 180 0.0 0.0 0.00 0.00 0.00 90 9952.4
20260507054844 10 202 0.0 0.0 0.00 0.00 0.00 91 9952.4
20260507054344 10 202 0.0 0.0 0.00 0.00 0.00 91 9952.3
20260507053844 10 337 0.0 0.0 0.00 0.00 0.00 91 9952.3
20260507053344 10 202 0.0 0.0 0.00 0.00 0.00 91 9952.1
20260507052844 9 202 0.0 0.0 0.00 0.00 0.00 91 9952.1
20260507052344 8 202 0.0 0.0 0.00 0.00 0.00 92 9952.2
20260507051844 8 202 0.0 0.0 0.00 0.00 0.00 92 9952.1
20260507051344 8 202 0.0 0.0 0.00 0.00 0.00 91 9952.1
20260507050844 8 202 0.0 0.0 0.00 0.00 0.00 91 9952.3
20260507050344 8 202 0.0 0.0 0.00 0.00 0.00 91 9952.3
20260507045845 8 202 0.0 0.0 0.00 0.00 0.00 91 9952.2
20260507045344 8 202 0.0 0.0 0.00 0.00 0.00 91 9952.0
20260507044844 8 202 0.0 0.0 0.00 0.00 0.00 91 9952.0
20260507044344 8 202 0.0 0.0 0.00 0.00 0.00 91 9951.9
20260507043844 7 202 0.0 0.0 0.00 0.00 0.00 91 9951.7
20260507043344 7 202 0.0 0.0 0.00 0.00 0.00 91 9951.7
20260507042844 7 202 0.0 0.0 0.00 0.00 0.00 91 9951.7
20260507042344 7 202 0.0 0.0 0.00 0.00 0.00 91 9951.6
20260507041844 7 202 0.0 0.0 0.00 0.00 0.00 91 9951.6
20260507041344 7 180 0.0 0.0 0.00 0.00 0.00 91 9951.7
20260507040844 7 180 0.0 0.0 0.00 0.00 0.00 91 9951.7
20260507040344 7 202 0.0 0.0 0.00 0.00 0.00 91 9951.7
20260507035844 7 202 0.0 0.0 0.00 0.00 0.00 91 9951.6
20260507035344 7 202 0.0 0.0 0.00 0.00 0.00 91 9951.5
20260507034844 7 202 0.0 0.0 0.00 0.00 0.00 91 9951.4
20260507034344 7 202 0.0 0.0 0.00 0.00 0.00 91 9951.5
20260507033844 7 202 0.0 0.0 0.00 0.00 0.00 91 9951.4
20260507033345 7 202 0.0 0.0 0.00 0.00 0.00 91 9951.4
20260507032845 7 180 0.0 6.4 0.00 0.00 0.00 91 9951.3
20260507032345 7 225 4.8 6.4 0.00 0.00 0.00 92 9951.3
20260507031844 7 202 0.0 0.0 0.00 0.00 0.00 92 9951.2
20260507031345 7 202 0.0 0.0 0.00 0.00 0.00 92 9951.3
20260507030844 7 202 0.0 3.2 0.00 0.00 0.00 91 9951.3
20260507030345 7 202 0.0 0.0 0.00 0.00 0.00 92 9951.4
20260507025845 7 202 0.0 0.0 0.00 0.00 0.00 92 9951.3
20260507025345 7 202 0.0 3.2 0.00 0.00 0.00 92 9951.3
20260507024845 7 202 0.0 3.2 0.00 0.00 0.00 92 9951.3
20260507024345 7 180 0.0 3.2 0.00 0.00 0.00 91 9951.2
20260507023845 7 180 0.0 3.2 0.00 0.00 0.00 91 9951.2
20260507023345 7 202 0.0 0.0 0.00 0.00 0.00 91 9951.2
20260507022845 7 202 0.0 0.0 0.00 0.00 0.00 91 9951.2
20260507022345 7 202 0.0 0.0 0.00 0.00 0.00 91 9951.2
20260507021845 7 202 0.0 0.0 0.00 0.00 0.00 91 9951.2
20260507021345 7 202 0.0 0.0 0.00 0.00 0.00 91 9951.4
20260507020845 7 202 0.0 0.0 0.00 0.00 0.00 91 9951.4
20260507020345 7 202 0.0 0.0 0.00 0.00 0.00 91 9951.4
20260507015845 7 225 0.0 3.2 0.00 0.00 0.00 91 9951.3
20260507015345 7 202 0.0 0.0 0.00 0.00 0.00 91 9951.1
20260507014845 7 202 0.0 0.0 0.00 0.00 0.00 91 9951.1
20260507014345 7 202 0.0 0.0 0.00 0.00 0.00 91 9951.1
20260507013845 7 202 0.0 0.0 0.00 0.00 0.00 91 9951.2
20260507013345 7 202 0.0 0.0 0.00 0.00 0.00 91 9951.1
20260507012845 7 225 0.0 0.0 0.00 0.00 0.00 91 9951.2
20260507012345 7 180 0.0 0.0 0.00 0.00 0.00 91 9951.3
20260507011845 8 180 0.0 0.0 0.00 0.00 0.00 91 9951.2
20260507011345 7 180 0.0 0.0 0.00 0.00 0.00 91 9951.0
20260507010845 7 180 0.0 0.0 0.00 0.00 0.00 91 9951.1
20260507010345 7 202 0.0 0.0 0.00 0.00 0.00 91 9951.1
20260507005845 7 225 0.0 4.8 0.00 0.00 0.00 91 9951.1
20260507005345 7 180 0.0 0.0 0.00 0.00 0.00 91 9951.1
20260507004845 8 202 0.0 0.0 0.00 0.00 0.00 91 9951.1
20260507004345 8 202 0.0 0.0 0.00 0.00 0.00 91 9951.0
20260507003845 8 202 0.0 0.0 0.00 0.00 0.00 91 9951.1
20260507003345 8 202 0.0 1.6 0.00 0.00 0.00 91 9951.0
20260507002845 8 202 0.0 0.0 0.00 0.00 0.00 91 9951.0
20260507002345 8 202 0.0 1.6 0.00 0.00 0.00 91 9951.1
20260507001845 8 225 1.6 1.6 0.00 0.00 0.00 91 9951.1
20260507001345 8 202 0.0 0.0 0.00 0.00 0.00 90 9951.0
20260507000845 8 202 0.0 0.0 0.00 0.00 0.00 91 9951.0
20260507000345 8 225 0.0 0.0 0.00 0.00 0.00 91 9951.0
20260506235845 8 225 0.0 0.0 0.00 0.00 0.00 91 9951.0
20260506235345 8 225 0.0 1.6 0.00 0.00 0.00 91 9950.9
20260506234845 8 225 0.0 0.0 0.00 0.00 0.00 90 9950.9
20260506234345 8 225 0.0 4.8 0.00 0.00 0.00 90 9950.7
20260506233845 8 202 4.8 4.8 0.00 0.00 0.00 90 9950.7
20260506233345 8 202 0.0 0.0 0.00 0.00 0.00 90 9950.7
20260506232845 9 225 0.0 6.4 0.00 0.00 0.00 90 9950.7
20260506232345 8 202 0.0 6.4 0.00 0.00 0.00 90 9950.8
20260506231845 9 180 0.0 0.0 0.00 0.00 0.00 90 9950.9
20260506231345 9 202 0.0 0.0 0.00 0.00 0.00 90 9951.0
20260506230845 9 202 0.0 0.0 0.00 0.00 0.00 90 9951.1
20260506230345 9 180 0.0 0.0 0.00 0.00 0.00 90 9951.0
20260506225845 9 180 0.0 0.0 0.00 0.00 0.00 90 9951.0
20260506225345 9 180 0.0 0.0 0.00 0.00 0.00 90 9951.0
20260506224845 10 180 0.0 0.0 0.00 0.00 0.00 90 9950.9
20260506224345 10 180 0.0 0.0 0.00 0.00 0.00 90 9951.1
20260506223845 10 202 0.0 0.0 0.00 0.00 0.00 90 9951.0
20260506223345 10 180 0.0 0.0 0.00 0.00 0.00 90 9951.0
20260506222845 10 180 0.0 0.0 0.00 0.00 0.00 90 9950.9
20260506222345 10 180 0.0 6.4 0.00 0.00 0.00 90 9951.0
20260506221845 10 202 1.6 6.4 0.00 0.00 0.00 90 9950.9
20260506221345 10 315 0.0 0.0 0.00 0.00 0.00 90 9951.3
20260506220845 10 202 0.0 3.2 0.00 0.00 0.00 89 9951.3
20260506220345 10 202 0.0 0.0 0.00 0.00 0.00 90 9951.3
20260506215845 -17 202 0.0 0.0 0.00 0.15 0.00 9951.2
20260506215345 -17 202 0.0 0.0 0.00 0.15 0.00 9951.0
20260506214845 -17 202 0.0 0.0 0.00 0.15 0.00 9951.0
20260506214345 -17 202 0.0 0.0 0.00 0.15 0.00 9951.0
20260506213845 -17 202 0.0 0.0 0.00 0.15 0.00 9950.8
20260506213345 -17 202 0.0 0.0 0.00 0.15 0.00 9950.9
20260506212845 -17 202 0.0 0.0 0.00 0.15 0.00 9950.7
20260506212345 -17 202 0.0 0.0 0.00 0.15 0.00 9950.8
20260506211845 -17 202 0.0 0.0 0.00 0.15 0.00 9950.8
20260506211345 -17 202 0.0 0.0 0.00 0.15 0.00 9951.0
20260506210845 -17 202 0.0 0.0 0.00 0.15 0.00 9951.0
20260506210345 -17 202 0.0 0.0 0.00 0.15 0.00 9951.0
20260506205845 -17 202 0.0 0.0 0.00 0.15 0.00 9950.9
20260506205345 -17 202 0.0 0.0 0.00 0.15 0.00 9950.7
20260506204845 -17 202 0.0 0.0 0.00 0.15 0.00 9950.7
20260506204345 -17 202 0.0 0.0 0.00 0.15 0.00 9950.7
20260506203845 -17 202 0.0 0.0 0.00 0.15 0.00 9950.7
20260506203345 -17 202 0.0 0.0 0.00 0.15 0.00 9950.6
20260506202845 -17 202 0.0 0.0 0.00 0.15 0.00 9950.6
20260506202345 -17 202 0.0 0.0 0.00 0.15 0.00 9950.6
20260506201845 -17 202 0.0 0.0 0.00 0.15 0.00 9950.6
20260506201345 -17 202 0.0 0.0 0.00 0.15 0.00 9950.5
20260506200845 -17 202 0.0 0.0 0.00 0.15 0.00 9950.4
20260506200345 -17 202 0.0 0.0 0.00 0.15 0.00 9950.3
20260506195845 -17 202 0.0 0.0 0.00 0.15 0.00 9950.4
20260506195345 -17 202 0.0 0.0 0.00 0.15 0.00 9950.2
20260506194845 -17 202 0.0 0.0 0.00 0.15 0.00 9950.2
20260506194345 -17 202 0.0 0.0 0.00 0.15 0.00 9950.1
20260506193845 -17 202 0.0 0.0 0.00 0.15 0.00 9949.9
20260506193345 -17 202 0.0 0.0 0.00 0.15 0.00 9949.9
20260506192845 -17 202 0.0 0.0 0.00 0.15 0.00 9949.8
20260506192345 -17 202 0.0 0.0 0.00 0.15 0.00 9949.8
20260506191845 -17 202 0.0 0.0 0.00 0.15 0.00 9949.7
20260506191345 -17 202 0.0 0.0 0.00 0.15 0.00 9949.6
20260506190845 -17 202 0.0 0.0 0.00 0.15 0.00 9949.5
20260506190345 -17 202 0.0 0.0 0.00 0.15 0.00 9949.4
20260506185845 -17 202 0.0 0.0 0.00 0.15 0.00 9949.4
20260506185345 -17 202 0.0 0.0 0.00 0.15 0.00 9949.5
20260506184845 -17 202 0.0 0.0 0.00 0.15 0.00 9949.4
20260506184345 -17 202 0.0 0.0 0.00 0.15 0.00 9949.3
20260506183845 -17 202 0.0 0.0 0.00 0.15 0.00 9949.4
20260506183345 -17 202 0.0 0.0 0.00 0.15 0.00 9949.4
20260506182845 -17 202 0.0 0.0 0.00 0.15 0.00 9949.2
20260506182345 -17 202 0.0 0.0 0.00 0.15 0.00 9949.1
20260506181845 -17 202 0.0 0.0 0.00 0.15 0.00 9949.2
20260506181345 -17 202 0.0 0.0 0.00 0.15 0.00 9949.1
20260506180845 -17 202 0.0 0.0 0.00 0.15 0.00 9949.0
20260506180345 -17 202 0.0 0.0 0.00 0.15 0.00 9949.0
20260506175845 -17 202 0.0 0.0 0.00 0.15 0.00 9949.0
20260506175345 -17 202 0.0 0.0 0.00 0.15 0.00 9949.1
20260506174845 -17 202 0.0 0.0 0.00 0.15 0.00 9949.0
20260506174345 -17 202 0.0 0.0 0.00 0.15 0.00 9949.0
20260506173845 -17 202 0.0 0.0 0.00 0.15 0.00 9948.9
20260506173346 -17 202 0.0 0.0 0.00 0.15 0.00 9948.8
20260506172846 -17 202 0.0 0.0 0.00 0.15 0.00 9948.7
20260506172346 -17 202 0.0 0.0 0.00 0.15 0.00 9948.6
20260506171846 -17 202 0.0 0.0 0.00 0.15 0.00 9948.6
20260506171346 -17 202 0.0 0.0 0.00 0.15 0.00 9948.6
20260506170846 -17 202 0.0 0.0 0.00 0.15 0.00 9948.6
20260506170346 -17 202 0.0 0.0 0.00 0.15 0.00 9948.5
20260506165846 -17 202 0.0 0.0 0.00 0.15 0.00 9948.4
20260506165346 -17 202 0.0 0.0 0.00 0.15 0.00 9948.3
20260506164846 -17 202 0.0 0.0 0.00 0.15 0.00 9948.4
20260506164346 -17 202 0.0 0.0 0.00 0.15 0.00 9948.4
20260506163846 -17 202 0.0 0.0 0.00 0.15 0.00 9948.4
20260506163346 -17 202 0.0 0.0 0.00 0.15 0.00 9948.2
20260506162846 -17 202 0.0 0.0 0.00 0.15 0.00 9948.3
20260506162346 -17 202 0.0 0.0 0.00 0.15 0.00 9948.4
20260506161846 -17 202 0.0 0.0 0.00 0.15 0.00 9948.6
20260506161346 -17 202 0.0 0.0 0.00 0.15 0.00 9948.4
20260506160846 -17 202 0.0 0.0 0.00 0.15 0.00 9948.5
20260506160346 -17 202 0.0 0.0 0.00 0.15 0.00 9948.5
20260506155846 -17 202 0.0 0.0 0.00 0.15 0.00 9948.6
20260506155346 -17 202 0.0 0.0 0.00 0.15 0.00 9948.6
20260506154846 -17 202 0.0 0.0 0.00 0.15 0.00 9948.5
20260506154346 -17 202 0.0 0.0 0.00 0.15 0.00 9948.4
20260506153846 -17 202 0.0 0.0 0.00 0.15 0.00 9948.3
20260506153346 -17 202 0.0 0.0 0.00 0.15 0.00 9948.4
20260506152846 -17 202 0.0 0.0 0.00 0.15 0.00 9948.4
20260506152346 -17 202 0.0 0.0 0.00 0.15 0.00 9948.5
20260506151846 -17 202 0.0 0.0 0.00 0.15 0.00 9948.6
20260506151346 -17 202 0.0 0.0 0.00 0.15 0.00 9948.6
20260506150846 -17 202 0.0 0.0 0.00 0.15 0.00 9948.7
20260506150346 -17 202 0.0 0.0 0.00 0.15 0.00 9948.8
20260506145846 -17 202 0.0 0.0 0.00 0.15 0.00 9948.7
20260506145346 -17 202 0.0 0.0 0.00 0.15 0.00 9948.7
20260506144846 -17 202 0.0 0.0 0.00 0.15 0.00 9948.9
20260506144346 -17 202 0.0 0.0 0.00 0.15 0.00 9948.7
20260506143846 -17 202 0.0 0.0 0.00 0.15 0.00 9948.9
20260506143346 -17 202 0.0 0.0 0.00 0.15 0.00 9948.8
20260506142846 -17 202 0.0 0.0 0.00 0.15 0.00 9948.9
20260506142346 -17 202 0.0 0.0 0.00 0.15 0.00 9948.7
20260506141846 -17 202 0.0 0.0 0.00 0.15 0.00 9948.9
20260506141346 -17 202 0.0 0.0 0.00 0.15 0.00 9948.9
20260506140846 -17 202 0.0 0.0 0.00 0.15 0.00 9949.0
20260506140346 -17 202 0.0 0.0 0.00 0.15 0.00 9949.3
20260506135846 -17 202 0.0 0.0 0.00 0.15 0.00 9949.3
20260506135346 -17 202 0.0 0.0 0.00 0.15 0.00 9949.4
20260506134846 -17 202 0.0 0.0 0.00 0.15 0.00 9949.5
20260506134346 -17 202 0.0 0.0 0.00 0.15 0.00 9949.7
20260506133846 -17 202 0.0 0.0 0.00 0.15 0.00 9949.6
20260506133346 -17 202 0.0 0.0 0.00 0.15 0.00 9949.5
20260506132846 -17 202 0.0 0.0 0.00 0.15 0.00 9949.7
20260506132346 -17 202 0.0 0.0 0.00 0.15 0.00 9949.8
20260506131846 -17 202 0.0 0.0 0.00 0.15 0.00 9949.9
20260506131346 -17 202 0.0 0.0 0.00 0.15 0.00 9949.8
20260506130846 -17 202 0.0 0.0 0.00 0.15 0.00 9949.7
20260506130346 -17 202 0.0 0.0 0.00 0.15 0.00 9949.6
20260506125846 -17 202 0.0 0.0 0.00 0.15 0.00 9949.6
20260506125346 -17 202 0.0 0.0 0.00 0.15 0.00 9949.7